Flag for Germany Weather past 2 weeks in Trier, Rhineland-Palatinate, Germany

Now
75 °F

Sunny.


Feels Like: 77 °F
Forecast: 51 / 81 °F
Wind: 2 mph from West

Location: Trier-Petrisberg

Current Time: Aug 1, 2015 at 2:33:20 PM

Latest Report: Aug 1, 2015 at 2:00 PM


Visibility: 19 mi

Pressure: 29.93 "Hg

Humidity: 31%

Dew point: 42 °F

Location of TrierLocation

Historic Weather in Trier — Graph

°F

Trier temperature yesterday

Maximum temperature yesterday: 72 °F (at 7:00 PM)
Minimum temperature yesterday: 46 °F (at 5:00 AM)
Average temperature yesterday: 60 °F

Past Weeks' High & Low Weather Summary

 TemperatureHumidityPressure
High96 °F (Jul 17, 4:00 PM)99% (Jul 19, 7:00 AM)30.15 "Hg (Jul 19, 7:00 AM)
Low46 °F (Jul 31, 5:00 AM)22% (Jul 17, 5:00 PM)29.62 "Hg (Jul 27, 5:00 AM)
Average67 °F65%29.91 "Hg
* Reported Jul 17 1:00 PM — Aug 1 1:00 PM, Trier, Weather by CustomWeather, © 2015

Note: Actual official high and low records may vary slightly from our data, if they occured in-between our weather recording intervals... More about our weather records

Advertising

Trier weather history for previous 24 hours

 ConditionsComfort  
Time TempWeatherWind HumidityBarometerVisibility
1:00 PM
Sat, Aug 1
73 °FSunny.2 mph35%29.94 "Hg19 mi
12:00 PM70 °FSunny.2 mph38%29.95 "Hg22 mi
11:00 AM70 °FSunny.1 mph43%29.95 "Hg25 mi
10:00 AM63 °FSunny.3 mph51%29.97 "Hg19 mi
9:00 AM60 °FSunny.3 mph58%29.97 "Hg22 mi
8:00 AM56 °FSunny.3 mph67%29.96 "Hg25 mi
7:00 AM54 °FSunny.5 mph68%29.95 "Hg22 mi
5:00 AM56 °FOvercast.6 mph64%29.94 "Hg22 mi
4:00 AM56 °FOvercast.5 mph65%29.94 "Hg28 mi
3:00 AM57 °FOvercast.5 mph63%29.95 "Hg25 mi
2:00 AM58 °FOvercast.6 mph59%29.97 "Hg28 mi
1:00 AM59 °FOvercast.5 mph57%29.98 "Hg28 mi
12:00 AM60 °FPassing clouds.3 mph55%29.98 "Hg28 mi
11:00 PM
Fri, Jul 31
60 °FClear.5 mph55%29.98 "Hg25 mi
10:00 PM62 °FClear.5 mph50%29.98 "Hg25 mi
9:00 PM65 °FSunny.6 mph45%29.96 "Hg25 mi
8:00 PM69 °FSunny.3 mph38%29.96 "Hg25 mi
7:00 PM72 °FSunny.2 mph36%29.96 "Hg22 mi
6:00 PM69 °FScattered clouds.7 mph39%29.99 "Hg25 mi
5:00 PM71 °FPartly sunny.5 mph36%30.00 "Hg22 mi
4:00 PM71 °FPartly sunny.5 mph39%30.01 "Hg22 mi
3:00 PM69 °FPartly sunny.6 mph44%30.03 "Hg22 mi
2:00 PM68 °FOvercast.5 mph48%30.05 "Hg19 mi
Weather by CustomWeather, © 2015

See weather overviewHow to use our weather pages